Location: Quincy
(39.9360°N, 91.4100°W)
Time: 23:06:05
(UTC-06:00)

ISS - Visible Passes

Search period start: 25 February 2020 00:00
Search period end: 06 March 2020 00:00
Orbit: 415 x 423 km, 51.6° (Epoch: 27 February)

Date Brightness Start Highest point End Pass type
(mag) Time Alt. Az. Time Alt. Az. Time Alt. Az.
25 Feb -3.8 05:09:17 68° NW 05:09:21 68° NW 05:12:43 10° NE visible
26 Feb -1.2 04:23:47 21° ENE 04:23:47 21° ENE 04:25:05 10° ENE visible
26 Feb -2.1 05:56:45 13° WNW 05:58:48 21° NNW 06:01:27 10° NNE visible
27 Feb -2.5 05:11:09 28° NNW 05:11:09 28° NNW 05:14:00 10° NE visible
28 Feb -1.1 04:25:27 18° NNE 04:25:27 18° NNE 04:26:30 10° NE visible
28 Feb -1.4 05:58:57 10° NW 06:00:46 14° NNW 06:02:34 10° NNE visible
29 Feb -1.7 05:12:39 16° NNW 05:12:51 16° NNW 05:15:06 10° NNE visible
01 Mar -1.0 04:26:50 14° NNE 04:26:50 14° NNE 04:27:38 10° NNE visible
01 Mar -1.2 06:01:35 10° NNW 06:02:47 11° N 06:04:00 10° NNE visible
02 Mar -1.2 05:13:55 11° NNW 05:14:48 12° N 05:16:14 10° NNE visible
03 Mar -0.9 04:28:02 12° N 04:28:02 12° N 04:28:40 10° NNE visible
03 Mar -1.1 06:03:14 10° NNW 06:04:47 12° N 06:06:19 10° NE visible
04 Mar -1.1 05:15:33 10° NNW 05:16:47 12° N 05:18:01 10° NNE visible
05 Mar -0.9 04:29:09 11° N 04:29:09 11° N 04:29:58 10° NNE visible
